Regional Weather Roundup
Issued by NWS

Home | Current Version | Previous Version | Text Only | Print | Product List | Glossary Off
Versions: 1 2 3 4 5 6 7 8 9 10 11 12 13 14 15 16 17 18 19 20 21 22 23 24 25 26 27 28 29 30 31 32 33 34 35 36 37 38 39 40 41 42 43 44 45 46 47 48 49 50

000
ASUS43 KFSD 170910
RWRSD

WEATHER ROUNDUP FOR SOUTH DAKOTA
NATIONAL WEATHER SERVICE SIOUX FALLS SD
300 AM CST TUE JAN 17 2017

NOTE: "FAIR" INDICATES FEW OR NO CLOUDS BELOW 12,000 FEET WITH NO
SIGNIFICANT WEATHER AND/OR OBSTRUCTIONS TO VISIBILITY.


SDZ001>005-009-010-012>017-171000-
NORTHWEST AND NORTH CENTRAL SOUTH DAKOTA

CITY           SKY/WX    TMP DP  RH WIND       PRES   REMARKS
BUFFALO          N/A     20   9  62 W5        29.90F WCI  13
FAITH            N/A     16  10  77 W6        30.01F WCI   7
MOBRIDGE       CLOUDY     9   3  77 N5        29.99F WCI   1
$$

SDZ012>016-024>037-041>051-057-063-072>074-171000-
SOUTHWEST AND SOUTH CENTRAL SOUTH DAKOTA

CITY           SKY/WX    TMP DP  RH WIND       PRES   REMARKS
RAPID CTY ARPT CLOUDY    13   6  74 CALM      30.02F
PIERRE         CLOUDY    12   9  87 W3        30.04F
CUSTER         CLOUDY    23   3  42 W6        29.98F WCI  16
ELLSWORTH AFB  CLOUDY    14   8  78 W6        30.01F WCI   5
PHILIP         CLOUDY    12   8  84 W9        30.06S WCI   0
PINE RIDGE     CLOUDY     2   0  91 E3        30.06S
SPEARFISH      FAIR      19   7  58 SE3       29.98F
WINNER         FAIR      19  14  81 W12       30.06R WCI   7
$$

SDZ004>011-016>023-039-040-171000-
NORTHEAST SOUTH DAKOTA

CITY           SKY/WX    TMP DP  RH WIND       PRES   REMARKS
ABERDEEN       CLOUDY     0  -5  79 CALM      30.04S
WATERTOWN      CLOUDY    -1  -5  82 CALM      29.99R
BROOKINGS      CLOUDY     8   6  92 NW7       29.98S FOG     WCI  -3
SISSETON         N/A      4   1  88 CALM      30.02R
$$

SDZ017-020-022-023-036>040-048>070-171000-
SOUTHEAST SOUTH DAKOTA

CITY           SKY/WX    TMP DP  RH WIND       PRES   REMARKS
SIOUX FALLS    FOG       20  20 100 NW10      29.99S VSB 1/4 WCI   9
HURON          CLOUDY     2  -1  88 NW5       30.06R WCI  -8
CHAMBERLAIN    CLOUDY    14  12  91 W7        30.06R WCI   4
MITCHELL       CLOUDY    10   7  87 W6        30.06R WCI   0
YANKTON        CLOUDY    16   9  73 CALM      30.04R
$$

ABBREVIATIONS USED IN REMARKS
   TC - TEMPERATURE IN CELSIUS
  WCI - WIND CHILL INDEX
   HX - HEAT INDEX
  VSB - VISIBILITY





USA.gov is the U.S. government's official web portal to all federal, state and local government web resources and services.